Temperature
13 13 13 12 12 12 12 12 12 12 12 13 13 13 13 12 12 11 11 11 10 10 10 9 9 9 9 9 9 9 9 9 9 9 9 10 10 10 10 10 10 10 10
13 13 12 12 12 12 12 12 12 12 13 13 13 12 12 12 11 11 10 10 10 9 9 9 9 8 8 8 9 9 9 9 9 9 9 10 10 10 10 10 10 10 10
13 13 13 12 12 12 12 12 12 12 13 13 12 12 12 11 11 10 9 9 9 9 8 8 8 8 8 8 8 8 8 9 9 9 9 9 9 9 9 9 9 9 9
13 13 13 12 12 12 12 12 12 12 12 12 12 12 11 11 11 9 9 8 8 8 8 8 8 8 8 8 8 8 8 8 8 8 8 8 8 8 8 8 8 8 8
13 13 13 12 12 12 12 12 12 12 12 12 12 12 11 11 10 9 8 8 8 8 7 7 7 7 7 7 7 7 7 7 7 7 7 7 7 7 7 7 6 6 6
13 13 13 12 12 12 12 12 12 12 12 12 11 11 11 10 10 9 8 8 7 7 7 7 7 7 7 7 6 6 6 6 6 6 6 5 5 5 5 5 5 4 4
13 13 13 12 12 12 12 12 12 11 11 11 11 11 10 9 8 8 8 7 7 6 6 6 6 6 6 6 6 6 5 5 4 4 4 4 3 3 3 3 3 3 3
13 13 13 12 12 12 11 11 11 11 11 11 10 10 9 8 7 7 7 7 6 6 5 5 5 5 5 5 5 5 4 4 3 2 2 1 1 1 1 1 1 2 2
13 13 12 12 12 11 11 11 11 11 10 10 9 9 9 7 7 7 6 6 5 5 5 4 4 4 4 4 4 3 3 2 1 0 -0 -0 -0 -0 -0 0 0 1 1
12 12 12 12 11 11 11 11 10 10 10 9 9 8 7 7 6 6 6 5 4 4 3 3 3 3 3 2 2 2 1 1 -1 -1 -1 -1 -1 -1 -1 -1 -1 -0 -0
12 12 11 11 11 10 10 10 10 10 9 9 8 7 7 6 4 4 4 4 4 4 3 3 2 2 1 1 0 -0 -1 -2 -2 -2 -2 -2 -2 -2 -2 -2 -1 -1 -1
12 11 11 10 10 10 10 10 9 9 9 8 7 6 6 5 4 2 2 3 3 3 3 3 2 1 0 -0 -1 -2 -2 -3 -3 -3 -3 -3 -3 -3 -3 -3 -3 -3 -2
11 11 10 10 9 9 9 9 9 8 8 7 6 6 5 4 3 2 1 1 1 2 2 1 0 -0 -1 -1 -1 -2 -3 -4 -4 -4 -4 -4 -4 -4 -4 -4 -4 -4 -3
11 10 9 9 9 9 8 8 8 7 7 6 5 5 4 4 3 2 1 -0 -1 -1 -1 -1 -0 -1 -2 -2 -3 -3 -4 -4 -5 -5 -5 -5 -5 -5 -5 -5 -4 -4 -4
10 9 9 8 8 8 8 7 7 7 6 5 5 4 3 3 2 1 0 -1 -3 -4 -4 -2 -3 -3 -3 -4 -4 -4 -5 -5 -6 -6 -5 -5 -5 -5 -5 -5 -5 -5 -5
9 8 8 8 8 7 7 7 6 5 5 4 4 3 3 2 1 0 -1 -2 -3 -4 -5 -5 -4 -5 -5 -5 -5 -6 -6 -6 -6 -6 -6 -6 -6 -6 -6 -6 -5 -5 -5
8 8 8 7 7 7 6 6 5 5 4 3 3 2 1 1 -0 -1 -2 -2 -3 -5 -5 -5 -5 -6 -6 -6 -6 -6 -7 -7 -7 -7 -7 -6 -6 -6 -6 -6 -6 -6 -5
7 7 7 7 6 6 5 5 4 4 3 2 2 1 0 -0 -1 -2 -3 -4 -5 -5 -6 -6 -6 -7 -7 -7 -7 -7 -7 -7 -7 -7 -7 -7 -7 -7 -6 -6 -6 -6 -6
7 6 6 6 5 5 4 4 3 3 2 1 1 0 -1 -1 -2 -3 -4 -5 -5 -6 -7 -7 -8 -8 -7 -7 -8 -7 -7 -7 -7 -8 -7 -7 -7 -7 -7 -7 -6 -6 -6
6 6 5 5 5 4 3 3 2 2 1 1 0 -1 -1 -2 -3 -4 -5 -6 -6 -7 -8 -8 -8 -8 -8 -8 -8 -8 -8 -8 -8 -8 -8 -7 -7 -7 -7 -7 -7 -7 -7
5 5 5 4 4 3 3 2 2 1 0 -0 -1 -1 -2 -3 -4 -5 -6 -7 -7 -8 -8 -8 -8 -8 -8 -8 -8 -8 -9 -9 -8 -8 -8 -7 -7 -7 -6 -6 -6 -6 -7
4 4 4 3 3 2 2 1 1 0 -0 -1 -1 -2 -3 -4 -5 -6 -7 -7 -8 -8 -8 -8 -8 -8 -8 -8 -9 -9 -9 -9 -9 -8 -8 -8 -8 -7 -6 -7 -7 -7 -7
3 3 3 2 2 1 1 0 -0 -1 -1 -2 -2 -3 -4 -5 -6 -7 -7 -8 -8 -8 -9 -9 -9 -9 -9 -9 -9 -9 -9 -9 -9 -8 -9 -9 -7 -8 -7 -7 -7 -6 -6
3 2 2 1 1 1 0 -0 -1 -2 -2 -3 -3 -5 -6 -6 -7 -8 -8 -8 -8 -8 -9 -9 -9 -9 -9 -9 -9 -9 -9 -9 -9 -8 -9 -9 -8 -8 -7 -7 -6 -6 -6
2 1 1 1 0 -0 -1 -2 -2 -3 -3 -4 -5 -5 -6 -7 -8 -8 -8 -8 -9 -8 -8 -9 -9 -9 -9 -8 -9 -9 -9 -9 -9 -9 -8 -9 -8 -9 -8 -6 -5 -5 -6
1 1 0 -0 -1 -1 -2 -3 -4 -4 -5 -5 -6 -6 -7 -8 -8 -8 -9 -9 -9 -9 -9 -9 -8 -8 -8 -8 -8 -9 -9 -10 -10 -10 -8 -9 -10 -10 -10 -7 -6 -5 -5
Wind_Speed
5 4 4 6 7 8 6 4 4 5 5 6 6 6 5 5 5 10 12 13 13 11 10 11 11 11 12 12 12 12 12 13 13 13 14 14 15 15 15 15 15 16 16
5 4 4 4 5 7 7 6 5 4 4 4 4 4 4 5 5 9 13 13 12 11 10 9 10 11 11 12 12 13 13 13 13 14 14 15 15 16 16 16 16 16 16
9 6 5 5 6 9 8 7 5 5 3 2 3 3 3 3 4 4 11 12 11 9 7 7 8 10 11 12 13 13 13 14 14 14 15 15 16 16 17 17 17 17 18
13 8 6 5 8 9 6 4 3 4 4 3 3 3 2 2 1 3 7 10 9 7 4 4 6 9 11 12 13 14 14 14 14 15 15 16 17 17 18 18 19 19 19
14 10 6 6 9 6 4 5 5 4 3 3 3 2 1 1 1 3 3 7 7 4 1 2 5 8 11 13 14 14 14 14 14 15 16 17 18 19 19 20 20 20 21
15 12 7 7 9 6 6 5 5 4 3 2 3 2 1 2 1 2 2 3 6 5 3 2 4 6 10 14 15 15 14 14 15 16 17 19 19 20 21 22 22 22 23
15 11 8 7 7 6 6 6 5 5 3 3 2 2 1 2 3 3 2 1 2 4 3 1 3 5 8 12 15 15 15 15 16 18 19 20 21 22 23 24 24 25 25
14 12 10 8 8 7 7 6 5 4 2 3 2 1 2 2 2 3 3 3 2 1 0 2 4 6 8 10 12 15 15 16 18 19 21 22 23 24 25 26 26 26 27
12 12 10 9 8 7 7 6 5 4 3 2 4 3 2 1 3 3 3 2 1 1 2 3 6 7 8 11 12 12 14 17 19 21 23 25 26 27 27 28 28 28 28
11 13 12 10 9 7 8 6 5 4 4 3 2 2 2 3 0 4 4 3 2 3 4 4 6 8 10 11 12 14 16 18 20 23 26 27 28 29 29 28 28 29 29
9 11 12 9 9 8 8 7 5 5 4 3 2 2 1 0 2 3 5 5 4 4 5 5 6 9 11 11 11 13 17 19 23 26 28 29 30 29 29 29 29 30 30
9 10 11 9 9 8 8 7 6 6 5 4 2 1 1 1 1 1 3 4 5 5 6 6 6 8 10 11 11 14 18 21 24 27 30 30 30 30 30 30 31 31 31
10 10 11 9 8 7 7 6 6 6 5 3 1 1 1 0 1 1 3 4 5 5 5 5 4 7 10 8 8 15 20 23 27 29 30 31 32 31 31 31 31 31 31
10 11 11 10 9 8 7 6 5 4 4 3 2 1 1 2 2 2 2 4 6 4 4 6 6 7 8 12 16 22 19 25 29 31 32 33 33 32 32 32 32 32 31
12 13 12 12 9 8 7 6 4 3 4 3 2 0 1 2 2 2 2 2 4 6 6 5 4 5 13 16 19 19 19 25 30 32 32 32 33 33 33 33 33 33 32
13 14 13 11 10 8 6 5 4 3 2 1 2 2 3 3 2 2 2 4 5 7 9 4 6 8 9 16 23 22 22 30 31 31 32 33 33 33 33 34 34 33 33
14 14 12 11 9 7 6 4 3 3 2 2 2 3 4 3 3 3 3 4 5 6 12 10 6 7 9 11 14 19 22 21 22 29 31 33 33 33 33 34 33 33 33
13 13 11 10 8 7 5 4 2 2 2 3 4 4 4 4 4 4 4 5 5 6 9 14 9 7 10 11 12 12 15 20 19 27 31 32 32 33 33 33 34 34 33
13 11 10 9 7 6 4 3 2 1 3 4 4 5 5 4 5 5 5 5 5 8 7 11 12 8 9 11 12 13 14 11 18 24 27 29 31 32 33 34 34 33 33
12 11 9 8 7 5 4 3 3 3 4 5 5 5 5 5 6 6 6 6 7 7 8 10 12 11 11 10 10 11 12 9 12 16 22 26 29 31 33 33 34 33 33
12 10 9 7 6 4 4 5 4 5 6 6 6 6 6 8 10 9 8 7 7 7 8 10 12 13 12 10 10 10 14 12 12 12 12 13 14 14 16 26 29 30 31
10 9 7 6 4 3 5 3 4 4 6 7 7 7 7 8 12 15 17 17 15 12 10 11 13 14 14 12 11 11 13 16 16 6 9 15 12 14 13 10 25 31 32
8 7 6 4 4 4 3 3 6 5 6 7 8 7 7 8 12 7 12 17 16 21 22 16 16 15 15 13 12 13 14 16 18 13 12 18 13 15 13 16 29 32 33
7 6 4 3 2 2 1 3 7 6 7 7 8 7 7 7 9 11 9 8 8 11 17 14 13 14 13 12 13 16 16 14 14 11 9 16 16 16 16 12 26 31 31
6 4 3 2 1 0 0 4 7 4 6 8 8 8 9 8 16 20 12 9 11 11 19 23 24 23 28 28 22 13 10 12 16 15 7 8 12 15 15 15 17 24 25
5 3 2 0 1 1 2 5 8 3 5 6 6 8 14 16 19 20 12 12 15 13 12 14 16 19 16 17 22 12 8 12 14 11 5 4 8 11 10 7 7 10 15
Wind_Direction
167 152 142 142 137 136 129 107 83 75 51 42 42 48 35 36 55 89 91 84 82 76 68 58 47 36 25 16 8 2 356 351 346 342 338 335 333 330 328 325 323 321 318
162 143 135 121 113 108 107 100 88 81 64 48 24 25 31 38 56 98 113 99 91 82 68 52 39 26 15 4 356 350 345 341 337 334 331 328 326 323 321 318 316 313 311
153 139 134 126 120 118 106 94 87 80 69 31 14 32 41 48 39 106 128 124 113 98 77 51 27 12 2 353 347 342 338 335 333 330 327 324 322 319 316 313 310 308 306
151 137 129 126 122 112 102 91 81 81 67 31 6 4 5 58 19 91 114 126 122 110 93 47 13 359 350 344 340 337 335 333 331 328 325 322 319 317 314 311 308 305 302
146 132 125 124 118 105 99 96 65 71 65 21 321 287 342 54 86 92 101 116 111 104 69 313 355 347 340 336 332 331 331 331 329 326 324 321 319 316 313 309 306 303 299
136 128 127 123 116 111 108 107 107 79 61 359 311 308 169 116 137 149 137 136 157 181 222 325 1 350 338 330 328 325 325 326 325 324 322 319 317 314 311 307 304 301 298
134 133 130 125 125 127 132 130 120 104 55 1 357 336 288 200 199 174 172 170 207 203 203 304 354 350 333 325 324 320 321 322 322 321 320 317 315 312 309 306 303 300 296
135 138 134 133 128 123 114 110 109 111 82 37 45 13 354 326 293 224 182 201 235 218 228 313 334 322 316 313 311 313 316 317 318 317 316 315 313 310 307 304 300 298 295
132 135 133 129 126 123 121 115 112 115 131 81 57 92 106 281 320 311 260 223 218 259 280 296 299 295 302 304 301 301 306 311 312 312 314 313 311 308 304 301 299 297 295
131 132 130 127 122 120 118 116 110 112 117 124 100 68 115 127 104 316 318 320 349 326 303 295 294 288 287 287 290 295 301 305 308 310 311 310 308 305 303 301 299 298 297
127 128 127 124 122 120 116 112 107 99 104 109 107 84 67 68 202 216 281 304 323 314 317 301 288 280 275 272 275 281 293 302 306 306 307 306 305 303 303 302 301 300 298
130 126 126 122 119 119 119 121 116 98 95 94 87 99 128 180 282 262 275 298 296 289 300 286 278 272 269 269 274 291 301 303 303 303 303 302 302 302 303 303 301 299 296
143 138 132 124 120 118 118 114 109 108 104 103 93 77 62 261 261 259 273 286 291 298 288 280 289 309 304 307 309 309 306 304 304 302 301 301 302 302 301 300 298 296 295
145 138 131 125 123 123 122 116 118 129 130 158 213 176 218 265 268 251 256 290 302 291 283 294 313 305 326 332 319 314 310 306 303 301 300 301 302 301 299 298 297 296 294
140 133 128 128 127 125 123 128 134 149 157 189 197 198 253 255 249 250 256 251 265 289 292 279 291 326 329 317 312 311 305 305 303 301 302 301 300 299 299 298 297 295 293
135 131 129 128 126 124 128 135 138 130 134 214 182 229 268 268 274 271 266 264 255 271 283 278 295 299 307 310 307 307 304 303 302 300 298 298 298 298 298 298 296 295 293
134 131 130 129 128 129 132 134 142 146 196 265 264 248 258 265 269 270 272 271 268 268 282 288 282 293 299 297 298 296 296 293 293 297 299 299 299 299 299 298 296 295 293
127 126 126 125 125 123 122 125 131 151 239 268 278 281 280 283 280 275 272 269 272 272 283 294 297 297 293 294 293 291 299 298 296 299 300 300 301 300 299 298 296 295 294
119 117 116 116 115 111 104 89 68 346 304 286 277 270 271 278 279 276 279 282 283 291 288 296 300 298 294 294 294 294 292 292 297 300 301 301 299 298 298 298 298 298 297
114 110 107 107 106 106 101 72 26 333 307 295 287 276 267 260 261 266 278 275 280 283 286 291 295 296 292 288 290 297 299 290 294 298 296 295 296 298 297 298 297 296 295
108 105 106 104 106 113 90 56 10 335 325 314 304 294 284 285 288 288 285 272 278 280 285 291 293 295 295 297 297 297 300 301 292 288 288 289 292 290 291 292 293 292 291
105 106 107 112 116 105 88 34 341 326 318 309 301 298 298 295 296 300 303 303 301 300 300 295 295 295 296 294 294 295 299 301 299 276 288 296 291 290 288 284 290 294 295
109 108 108 110 107 115 104 358 328 324 305 294 292 294 299 299 307 297 295 298 298 298 298 296 294 292 292 291 290 292 291 290 292 294 298 296 293 291 289 291 295 296 297
109 109 107 96 87 143 130 339 329 329 306 299 298 295 293 292 295 299 286 287 281 290 291 291 285 285 289 289 284 289 290 290 288 285 278 289 295 294 295 290 294 293 293
102 101 96 74 29 46 246 332 332 319 305 305 306 313 317 302 303 308 311 303 297 293 298 297 297 298 299 300 300 300 297 299 298 297 285 278 291 300 297 290 286 290 293
98 96 99 288 297 287 302 325 327 306 305 306 307 307 311 310 309 313 312 303 302 300 297 298 299 298 295 294 301 298 296 298 298 299 284 283 297 312 303 272 269 289 293
Height
1519 1521 1523 1524 1525 1526 1527 1528 1528 1529 1529 1529 1528 1528 1527 1526 1525 1523 1522 1521 1521 1521 1520 1519 1519 1518 1518 1517 1516 1515 1514 1513 1512 1511 1510 1510 1509 1508 1508 1507 1507 1507 1508
1518 1519 1521 1523 1524 1525 1525 1526 1526 1527 1527 1527 1526 1525 1524 1523 1522 1521 1519 1519 1518 1518 1518 1517 1516 1516 1515 1514 1513 1512 1511 1510 1508 1507 1506 1505 1504 1503 1502 1502 1502 1501 1501
1515 1517 1519 1520 1522 1523 1524 1524 1525 1525 1525 1525 1524 1523 1522 1521 1520 1519 1517 1516 1515 1515 1515 1515 1514 1513 1512 1511 1510 1509 1507 1506 1504 1503 1502 1500 1499 1498 1497 1496 1496 1495 1495
1513 1515 1517 1518 1519 1521 1522 1522 1523 1523 1523 1522 1521 1520 1519 1518 1517 1516 1515 1514 1513 1513 1513 1512 1512 1510 1509 1508 1507 1505 1504 1502 1500 1498 1497 1495 1494 1493 1491 1490 1490 1489 1488
1509 1511 1514 1516 1517 1518 1519 1520 1521 1521 1520 1520 1519 1518 1516 1515 1514 1514 1513 1512 1511 1511 1510 1509 1508 1507 1506 1504 1503 1501 1499 1497 1495 1493 1492 1490 1488 1487 1486 1485 1484 1483 1482
1505 1507 1510 1512 1514 1516 1517 1518 1518 1518 1518 1517 1516 1515 1514 1513 1512 1511 1511 1510 1509 1508 1508 1506 1505 1504 1502 1501 1499 1496 1494 1492 1490 1488 1486 1484 1483 1481 1479 1478 1477 1476 1475
1500 1503 1506 1509 1511 1513 1514 1515 1516 1516 1515 1514 1514 1512 1511 1510 1509 1509 1508 1508 1507 1506 1505 1503 1502 1500 1499 1497 1494 1492 1489 1487 1485 1483 1481 1479 1477 1475 1473 1471 1470 1469 1468
1496 1500 1502 1505 1507 1509 1511 1512 1513 1513 1512 1512 1511 1509 1509 1509 1507 1506 1505 1505 1504 1503 1502 1501 1499 1497 1494 1492 1489 1487 1484 1482 1479 1477 1475 1473 1470 1468 1466 1464 1462 1461 1460
1492 1496 1499 1501 1503 1506 1507 1509 1510 1510 1509 1508 1508 1508 1507 1506 1505 1504 1503 1502 1501 1500 1498 1497 1494 1492 1489 1487 1484 1481 1478 1476 1473 1471 1469 1466 1463 1461 1459 1457 1455 1453 1452
1488 1492 1495 1497 1500 1502 1504 1505 1506 1506 1506 1505 1505 1504 1504 1503 1503 1500 1499 1499 1497 1496 1494 1492 1489 1487 1484 1481 1479 1476 1473 1470 1468 1465 1462 1459 1456 1454 1451 1449 1447 1445 1443
1484 1487 1491 1493 1496 1499 1501 1502 1503 1503 1503 1502 1502 1501 1500 1499 1498 1497 1494 1493 1492 1491 1489 1486 1484 1481 1478 1476 1473 1470 1468 1465 1462 1459 1456 1452 1449 1446 1444 1441 1439 1436 1434
1479 1483 1487 1490 1493 1496 1498 1499 1500 1500 1500 1499 1498 1498 1497 1496 1495 1494 1491 1487 1485 1483 1482 1480 1477 1475 1473 1470 1467 1465 1462 1459 1455 1452 1448 1445 1442 1439 1436 1432 1429 1427 1425
1474 1478 1482 1486 1490 1492 1494 1496 1496 1497 1496 1496 1495 1495 1494 1493 1491 1490 1487 1483 1479 1475 1474 1473 1472 1471 1469 1466 1462 1459 1455 1452 1448 1444 1441 1437 1434 1430 1427 1423 1420 1418 1415
1470 1475 1479 1483 1487 1490 1492 1493 1494 1493 1493 1492 1492 1491 1490 1489 1487 1486 1484 1480 1474 1470 1468 1467 1466 1465 1462 1459 1456 1452 1448 1444 1440 1436 1432 1429 1425 1421 1418 1414 1411 1408 1406
1467 1472 1476 1481 1484 1487 1489 1490 1490 1490 1490 1489 1488 1487 1486 1484 1483 1481 1479 1477 1474 1467 1460 1459 1459 1458 1456 1452 1448 1444 1440 1436 1432 1428 1424 1420 1416 1412 1409 1405 1402 1399 1396
1464 1469 1475 1479 1482 1484 1486 1487 1487 1487 1486 1485 1484 1483 1482 1480 1478 1476 1474 1472 1470 1465 1458 1453 1453 1451 1448 1444 1441 1437 1432 1428 1424 1420 1416 1412 1408 1404 1400 1396 1392 1389 1386
1463 1468 1473 1477 1480 1482 1483 1484 1484 1484 1483 1482 1480 1479 1477 1475 1473 1471 1469 1467 1464 1461 1454 1447 1447 1444 1441 1437 1432 1429 1424 1420 1415 1412 1408 1404 1400 1396 1391 1387 1383 1380 1376
1463 1468 1472 1475 1478 1480 1480 1481 1481 1480 1479 1478 1477 1475 1473 1470 1468 1466 1463 1461 1458 1455 1451 1442 1439 1437 1434 1430 1425 1421 1417 1413 1408 1404 1400 1395 1391 1386 1382 1378 1374 1370 1367
1462 1467 1471 1474 1476 1477 1478 1478 1478 1477 1476 1474 1472 1470 1468 1465 1463 1460 1458 1455 1452 1449 1445 1439 1433 1430 1426 1423 1418 1413 1409 1405 1400 1396 1391 1386 1381 1377 1373 1369 1364 1360 1356
1462 1466 1470 1472 1474 1475 1475 1475 1474 1473 1472 1470 1468 1465 1463 1460 1457 1454 1452 1449 1446 1442 1439 1434 1428 1423 1419 1416 1413 1407 1400 1396 1391 1387 1382 1377 1372 1368 1363 1358 1354 1349 1345
1463 1466 1469 1471 1472 1472 1472 1472 1471 1469 1467 1465 1463 1461 1458 1455 1452 1450 1447 1444 1441 1437 1433 1428 1422 1417 1413 1410 1406 1401 1395 1388 1382 1378 1372 1367 1362 1356 1351 1347 1343 1338 1335
1463 1466 1468 1469 1469 1470 1469 1468 1467 1465 1463 1461 1458 1455 1452 1450 1447 1444 1442 1439 1436 1432 1427 1423 1417 1412 1407 1404 1400 1395 1389 1381 1372 1369 1365 1357 1354 1347 1342 1337 1333 1330 1326
1463 1465 1466 1467 1467 1467 1466 1464 1462 1460 1458 1455 1452 1449 1446 1444 1441 1438 1435 1432 1429 1426 1423 1419 1412 1406 1402 1398 1393 1388 1382 1376 1368 1362 1359 1348 1344 1337 1333 1328 1325 1321 1316
1462 1464 1464 1465 1464 1464 1462 1461 1458 1456 1453 1450 1448 1444 1441 1438 1435 1432 1429 1425 1422 1418 1415 1411 1406 1400 1396 1392 1388 1383 1377 1369 1361 1356 1353 1344 1335 1329 1322 1317 1314 1310 1306
1461 1462 1463 1463 1462 1460 1459 1456 1454 1451 1448 1445 1442 1439 1436 1433 1430 1427 1423 1418 1413 1409 1407 1403 1399 1394 1389 1385 1381 1376 1370 1363 1354 1347 1345 1338 1329 1321 1311 1306 1303 1300 1297
1460 1461 1461 1460 1459 1457 1455 1453 1450 1446 1443 1440 1437 1434 1431 1427 1424 1421 1417 1412 1406 1402 1398 1393 1389 1385 1381 1377 1374 1370 1364 1358 1350 1341 1336 1332 1324 1318 1302 1292 1292 1290 1286